Terminal Aerodrome Forecast
Issued by NWS

Home | Current Version | Previous Version | Text Only | Print | Product List | Glossary On
Versions: 1 2 3 4 5 6 7 8 9 10 11 12 13 14 15 16
000
FTUS41 KAKQ 012300
TAFPHF
TAF
KPHF 012326Z 0200/0224 22007KT P6SM SCT050
     FM021100 24005KT 5SM HZ FEW120
     FM021400 24008KT P6SM SCT040 SCT250=

USA.gov is the U.S. government's official web portal to all federal, state and local government web resources and services.